• In Uzbekistan
  • List of Countries
  • For 7 days
  • Water Temperature
  • Satellite Maps
  • Weather Map
  • Weather Widgets
  • user-avatar
    Login

    Hourly Weather San Juan

    Today, 6 December, Tuesday

    Time Temperature Precipitation Wind Pressure Humidity
    00:00 +23°C° 0 mm 4 mps 704 mmHg 37%
    01:00 +22°C° 0 mm 4 mps 704 mmHg 41%
    02:00 +21°C° 0 mm 4 mps 704 mmHg 42%
    03:00 +21°C° 0 mm 4 mps 704 mmHg 44%
    04:00 +20°C° 0 mm 4 mps 704 mmHg 45%
    05:00 +21°C° 0 mm 4 mps 704 mmHg 42%
    06:00 +22°C° 0 mm 4 mps 704 mmHg 38%
    07:00 +25°C° 0 mm 4 mps 705 mmHg 31%
    08:00 +26°C° 0 mm 3 mps 704 mmHg 29%
    09:00 +27°C° 0 mm 2 mps 704 mmHg 27%
    10:00 +28°C° 0 mm 2 mps 704 mmHg 25%
    11:00 +30°C° 0 mm 2 mps 703 mmHg 22%
    12:00 +31°C° 0 mm 2 mps 703 mmHg 20%
    13:00 +34°C° 0 mm 2 mps 702 mmHg 18%
    14:00 +34°C° 0 mm 2 mps 702 mmHg 17%
    15:00 +34°C° 0 mm 3 mps 701 mmHg 17%
    16:00 +34°C° 0 mm 3 mps 701 mmHg 16%
    17:00 +33°C° 0 mm 3 mps 701 mmHg 19%
    18:00 +30°C° 0 mm 2 mps 701 mmHg 22%
    19:00 +28°C° 0 mm 2 mps 702 mmHg 25%
    20:00 +27°C° 0 mm 2 mps 702 mmHg 27%
    21:00 +26°C° 0 mm 1 mps 702 mmHg 30%
    22:00 +25°C° 0 mm 1 mps 703 mmHg 33%
    23:00 +25°C° 0 mm 1 mps 703 mmHg 34%

    Tomorrow, 7 December, Wednesday

    Time Temperature Precipitation Wind Pressure Humidity
    00:00 +24°C° 0 mm 1 mps 702 mmHg 35%
    01:00 +24°C° 0 mm 1 mps 702 mmHg 36%
    02:00 +23°C° 0 mm 2 mps 702 mmHg 36%
    03:00 +21°C° 0 mm 2 mps 702 mmHg 36%
    04:00 +21°C° 0 mm 2 mps 702 mmHg 36%
    05:00 +22°C° 0 mm 3 mps 702 mmHg 33%
    06:00 +25°C° 0 mm 3 mps 703 mmHg 30%
    07:00 +26°C° 0 mm 4 mps 703 mmHg 27%
    08:00 +28°C° 0 mm 4 mps 703 mmHg 26%
    09:00 +29°C° 0 mm 4 mps 703 mmHg 24%
    10:00 +32°C° 0 mm 4 mps 703 mmHg 22%
    11:00 +33°C° 0 mm 4 mps 702 mmHg 21%
    12:00 +34°C° 0 mm 4 mps 702 mmHg 19%
    13:00 +35°C° 0 mm 4 mps 702 mmHg 18%
    14:00 +35°C° 0.1 mm 5 mps 701 mmHg 18%
    15:00 +35°C° 0.1 mm 5 mps 701 mmHg 19%
    16:00 +35°C° 0.1 mm 5 mps 701 mmHg 19%
    17:00 +33°C° 0.4 mm 6 mps 701 mmHg 25%
    18:00 +32°C° 0.4 mm 6 mps 702 mmHg 31%
    19:00 +29°C° 0.4 mm 6 mps 702 mmHg 37%
    20:00 +28°C° 1 mm 6 mps 703 mmHg 41%
    21:00 +27°C° 1 mm 6 mps 704 mmHg 46%
    22:00 +26°C° 1 mm 6 mps 705 mmHg 50%
    23:00 +24°C° 0.6 mm 6 mps 705 mmHg 50%

    Day after tomorrow, 8 December, Thursday

    Time Temperature Precipitation Wind Pressure Humidity
    00:00 +23°C° 0.6 mm 7 mps 705 mmHg 50%
    01:00 +23°C° 0.6 mm 8 mps 705 mmHg 50%
    02:00 +22°C° 0.4 mm 7 mps 705 mmHg 50%
    03:00 +22°C° 0.4 mm 6 mps 705 mmHg 49%
    04:00 +21°C° 0.4 mm 5 mps 705 mmHg 49%
    05:00 +22°C° 0.3 mm 6 mps 706 mmHg 46%
    06:00 +23°C° 0.3 mm 6 mps 706 mmHg 42%
    07:00 +24°C° 0.3 mm 7 mps 706 mmHg 39%
    08:00 +24°C° 0.2 mm 7 mps 706 mmHg 37%
    09:00 +26°C° 0.2 mm 7 mps 706 mmHg 35%
    10:00 +27°C° 0.2 mm 7 mps 706 mmHg 32%
    11:00 +28°C° 0.1 mm 7 mps 706 mmHg 32%
    12:00 +28°C° 0.1 mm 7 mps 705 mmHg 31%
    13:00 +29°C° 0.1 mm 7 mps 705 mmHg 30%
    14:00 +29°C° 0.2 mm 6 mps 704 mmHg 31%
    15:00 +29°C° 0.2 mm 5 mps 704 mmHg 32%
    16:00 +28°C° 0.2 mm 5 mps 703 mmHg 33%
    17:00 +27°C° 0.5 mm 4 mps 704 mmHg 36%
    18:00 +26°C° 0.5 mm 3 mps 704 mmHg 39%
    19:00 +25°C° 0.5 mm 3 mps 704 mmHg 42%
    20:00 +24°C° 0.8 mm 3 mps 705 mmHg 46%
    21:00 +24°C° 0.8 mm 3 mps 705 mmHg 50%
    22:00 +22°C° 0.8 mm 3 mps 705 mmHg 54%
    23:00 +21°C° 0.7 mm 2 mps 705 mmHg 59%

    9 December, Friday

    Time Temperature Precipitation Wind Pressure Humidity
    00:00 +20°C° 0.7 mm 2 mps 704 mmHg 63%
    01:00 +20°C° 0.7 mm 2 mps 704 mmHg 68%
    02:00 +19°C° 0.4 mm 2 mps 704 mmHg 69%
    03:00 +19°C° 0.4 mm 2 mps 703 mmHg 70%
    04:00 +19°C° 0.4 mm 2 mps 703 mmHg 71%
    05:00 +20°C° 0.3 mm 2 mps 704 mmHg 66%
    06:00 +22°C° 0.3 mm 1 mps 704 mmHg 61%
    07:00 +23°C° 0.3 mm 1 mps 704 mmHg 56%
    08:00 +24°C° 0.3 mm 1 mps 704 mmHg 51%
    09:00 +25°C° 0.3 mm 1 mps 704 mmHg 47%
    10:00 +27°C° 0.3 mm 1 mps 704 mmHg 42%
    11:00 +28°C° 0.5 mm 2 mps 704 mmHg 39%
    12:00 +29°C° 0.5 mm 2 mps 703 mmHg 37%
    13:00 +29°C° 0.5 mm 2 mps 702 mmHg 34%
    14:00 +30°C° 0.7 mm 2 mps 702 mmHg 33%
    15:00 +30°C° 0.7 mm 2 mps 702 mmHg 33%
    16:00 +30°C° 0.7 mm 3 mps 702 mmHg 32%
    17:00 +29°C° 0.6 mm 2 mps 702 mmHg 35%
    18:00 +27°C° 0.6 mm 2 mps 703 mmHg 39%
    19:00 +26°C° 0.6 mm 1 mps 703 mmHg 42%
    20:00 +26°C° 0.4 mm 1 mps 704 mmHg 42%
    21:00 +25°C° 0.4 mm 2 mps 704 mmHg 43%
    22:00 +25°C° 0.4 mm 2 mps 705 mmHg 43%
    23:00 +24°C° 0.2 mm 2 mps 704 mmHg 43%

    10 December, Saturday

    Time Temperature Precipitation Wind Pressure Humidity
    00:00 +24°C° 0.2 mm 3 mps 704 mmHg 42%
    01:00 +22°C° 0.2 mm 3 mps 703 mmHg 42%
    02:00 +22°C° 0 mm 3 mps 703 mmHg 42%
    03:00 +21°C° 0 mm 3 mps 703 mmHg 42%
    04:00 +21°C° 0 mm 3 mps 703 mmHg 43%
    05:00 +24°C° 0 mm 3 mps 704 mmHg 38%
    06:00 +25°C° 0 mm 3 mps 705 mmHg 33%
    07:00 +27°C° 0 mm 3 mps 705 mmHg 29%
    08:00 +28°C° 0 mm 2 mps 705 mmHg 26%
    09:00 +29°C° 0 mm 2 mps 705 mmHg 23%
    10:00 +31°C° 0 mm 1 mps 705 mmHg 20%
    11:00 +32°C° 0 mm 1 mps 704 mmHg 18%
    12:00 +33°C° 0 mm 1 mps 704 mmHg 17%
    13:00 +33°C° 0 mm 1 mps 703 mmHg 15%
    14:00 +35°C° 0 mm 2 mps 703 mmHg 15%
    15:00 +35°C° 0 mm 2 mps 703 mmHg 14%
    16:00 +35°C° 0 mm 2 mps 702 mmHg 14%
    17:00 +32°C° 0 mm 2 mps 703 mmHg 16%
    18:00 +31°C° 0 mm 2 mps 703 mmHg 18%
    19:00 +29°C° 0 mm 1 mps 703 mmHg 20%
    20:00 +28°C° 0 mm 1 mps 704 mmHg 22%
    21:00 +28°C° 0 mm 1 mps 704 mmHg 23%
    22:00 +27°C° 0 mm 1 mps 704 mmHg 24%
    23:00 +26°C° 0 mm 1 mps 704 mmHg 25%

    11 December, Sunday

    Time Temperature Precipitation Wind Pressure Humidity
    00:00 +26°C° 0 mm 1 mps 704 mmHg 26%
    01:00 +25°C° 0 mm 2 mps 704 mmHg 27%
    02:00 +25°C° 0 mm 2 mps 704 mmHg 28%
    03:00 +24°C° 0 mm 2 mps 704 mmHg 30%
    04:00 +24°C° 0 mm 2 mps 705 mmHg 32%
    05:00 +25°C° 0 mm 3 mps 706 mmHg 32%
    06:00 +26°C° 0 mm 4 mps 706 mmHg 33%
    07:00 +27°C° 0 mm 6 mps 707 mmHg 33%
    08:00 +28°C° 0 mm 5 mps 707 mmHg 31%
    09:00 +29°C° 0 mm 5 mps 707 mmHg 30%
    10:00 +30°C° 0 mm 4 mps 707 mmHg 28%
    11:00 +31°C° 0 mm 3 mps 706 mmHg 26%
    12:00 +33°C° 0 mm 3 mps 705 mmHg 25%
    13:00 +34°C° 0 mm 2 mps 705 mmHg 23%
    14:00 +34°C° 0 mm 2 mps 704 mmHg 22%
    15:00 +34°C° 0 mm 2 mps 704 mmHg 22%
    16:00 +35°C° 0 mm 2 mps 703 mmHg 22%
    17:00 +32°C° 0 mm 1 mps 703 mmHg 24%
    18:00 +31°C° 0 mm 1 mps 703 mmHg 27%
    19:00 +29°C° 0 mm 1 mps 703 mmHg 29%
    20:00 +28°C° 0 mm 1 mps 703 mmHg 30%
    21:00 +28°C° 0 mm 1 mps 703 mmHg 32%
    22:00 +27°C° 0 mm 1 mps 703 mmHg 33%
    23:00 +26°C° 0 mm 1 mps 703 mmHg 33%
    Show more